| time (UTC) | temp C | wind direction | speed KPH | gust KPH | rain 1hr cm | rain 24hr cm | rain mn cm | humidity % | barometer mb |
| 20260831004617 | 23 | 0.0 | 0.0 | 0.00 | 0.08 | 0.05 | 90 | 1021.6 | |
| 20260831003637 | 23 | 0.0 | 0.0 | 0.00 | 0.08 | 0.05 | 89 | 1021.5 | |
| 20260831002517 | 23 | 0.0 | 0.0 | 0.00 | 0.08 | 0.05 | 88 | 1021.5 | |
| 20260831001517 | 24 | 0.0 | 0.0 | 0.00 | 0.08 | 0.05 | 86 | 1021.5 | |
| 20260831000537 | 25 | 0.0 | 0.0 | 0.00 | 0.08 | 0.05 | 85 | 1021.7 | |
| 20260830235517 | 25 | 0.0 | 0.0 | 0.00 | 0.08 | 0.05 | 82 | 1021.7 | |
| 20260830234617 | 26 | 0.0 | 0.0 | 0.00 | 0.08 | 0.05 | 80 | 1021.7 | |
| 20260830232516 | 27 | 0.0 | 0.0 | 0.00 | 0.08 | 0.05 | 75 | 1021.8 | |
| 20260830231516 | 28 | 0.0 | 3.2 | 0.00 | 0.08 | 0.05 | 72 | 1021.8 | |
| 20260830230537 | 30 | 0.0 | 1.6 | 0.00 | 0.08 | 0.05 | 68 | 1021.9 | |
| 20260830225516 | 31 | 0.0 | 1.6 | 0.00 | 0.08 | 0.05 | 67 | 1021.9 | |
| 20260830224516 | 31 | 0.0 | 0.0 | 0.00 | 0.08 | 0.05 | 64 | 1021.9 | |
| 20260830223516 | 31 | 0.0 | 0.0 | 0.00 | 0.08 | 0.05 | 66 | 1021.8 | |
| 20260830222516 | 32 | 0.0 | 1.6 | 0.00 | 0.08 | 0.05 | 64 | 1021.7 | |
| 20260830221516 | 32 | 0.0 | 0.0 | 0.00 | 0.08 | 0.05 | 65 | 1021.7 | |
| 20260830220536 | 31 | 0.0 | 1.6 | 0.00 | 0.08 | 0.05 | 64 | 1021.7 | |
| 20260830215516 | 31 | 293 | 1.6 | 4.8 | 0.00 | 0.08 | 0.05 | 64 | 1021.8 |
| 20260830214557 | 31 | 0.0 | 3.2 | 0.00 | 0.08 | 0.05 | 64 | 1021.7 | |
| 20260830213617 | 31 | 0.0 | 1.6 | 0.00 | 0.08 | 0.05 | 65 | 1021.7 | |
| 20260830212516 | 31 | 45 | 1.6 | 4.8 | 0.00 | 0.08 | 0.05 | 63 | 1021.6 |
| 20260830211516 | 31 | 0.0 | 3.2 | 0.00 | 0.08 | 0.05 | 65 | 1021.7 | |
| 20260830210516 | 31 | 338 | 1.6 | 8.0 | 0.00 | 0.08 | 0.05 | 64 | 1021.8 |
| 20260830205516 | 31 | 0.0 | 3.2 | 0.00 | 0.08 | 0.05 | 66 | 1021.9 | |
| 20260830204616 | 31 | 113 | 1.6 | 4.8 | 0.00 | 0.08 | 0.05 | 65 | 1021.9 |
| 20260830202536 | 31 | 45 | 1.6 | 4.8 | 0.00 | 0.08 | 0.05 | 67 | 1021.9 |
| 20260830201516 | 31 | 315 | 1.6 | 4.8 | 0.00 | 0.08 | 0.05 | 67 | 1022.1 |
| 20260830200536 | 31 | 315 | 1.6 | 6.4 | 0.03 | 0.08 | 0.05 | 68 | 1022.1 |
| 20260830195516 | 30 | 315 | 1.6 | 4.8 | 0.03 | 0.08 | 0.05 | 70 | 1022.4 |
| 20260830194516 | 30 | 293 | 1.6 | 3.2 | 0.03 | 0.08 | 0.05 | 69 | 1022.4 |
| 20260830193516 | 29 | 0.0 | 6.4 | 0.03 | 0.08 | 0.05 | 74 | 1022.5 | |
| 20260830192556 | 28 | 23 | 1.6 | 6.4 | 0.03 | 0.08 | 0.05 | 76 | 1022.6 |
| 20260830191516 | 28 | 0.0 | 4.8 | 0.03 | 0.08 | 0.05 | 74 | 1022.6 | |
| 20260830190516 | 28 | 0.0 | 3.2 | 0.00 | 0.05 | 0.03 | 74 | 1022.6 | |
| 20260830185536 | 28 | 45 | 1.6 | 4.8 | 0.00 | 0.05 | 0.03 | 75 | 1022.9 |
| 20260830184536 | 28 | 0.0 | 0.0 | 0.00 | 0.05 | 0.03 | 77 | 1023.1 | |
| 20260830183516 | 27 | 0.0 | 0.0 | 0.00 | 0.05 | 0.03 | 78 | 1023.2 | |
| 20260830182556 | 27 | 0.0 | 0.0 | 0.00 | 0.05 | 0.03 | 76 | 1023.5 | |
| 20260830181516 | 27 | 0.0 | 0.0 | 0.00 | 0.08 | 0.03 | 77 | 1023.7 | |
| 20260830180516 | 27 | 0.0 | 0.0 | 0.00 | 0.08 | 0.03 | 77 | 1023.8 | |
| 20260830175556 | 27 | 0.0 | 4.8 | 0.00 | 0.08 | 0.03 | 76 | 1023.9 | |
| 20260830174516 | 27 | 0.0 | 3.2 | 0.00 | 0.08 | 0.03 | 76 | 1024.0 | |
| 20260830173556 | 27 | 293 | 3.2 | 8.0 | 0.00 | 0.08 | 0.03 | 75 | 1024.1 |
| 20260830172516 | 27 | 23 | 1.6 | 6.4 | 0.00 | 0.08 | 0.03 | 77 | 1024.2 |
| 20260830171536 | 27 | 0.0 | 1.6 | 0.00 | 0.08 | 0.03 | 80 | 1024.3 | |
| 20260830170516 | 27 | 0.0 | 4.8 | 0.00 | 0.08 | 0.03 | 78 | 1024.4 | |
| 20260830165536 | 27 | 0.0 | 3.2 | 0.00 | 0.08 | 0.03 | 81 | 1024.5 | |
| 20260830164636 | 26 | 0.0 | 1.6 | 0.00 | 0.08 | 0.03 | 82 | 1024.6 | |
| 20260830163536 | 26 | 0.0 | 1.6 | 0.00 | 0.08 | 0.03 | 86 | 1024.8 | |
| 20260830162516 | 25 | 0.0 | 1.6 | 0.00 | 0.08 | 0.03 | 86 | 1024.9 | |
| 20260830161536 | 25 | 0.0 | 0.0 | 0.00 | 0.08 | 0.03 | 86 | 1025.0 | |
| 20260830160516 | 25 | 0.0 | 0.0 | 0.00 | 0.08 | 0.03 | 88 | 1025.1 | |
| 20260830155516 | 25 | 0.0 | 1.6 | 0.00 | 0.08 | 0.03 | 88 | 1025.1 | |
| 20260830154536 | 24 | 0.0 | 3.2 | 0.00 | 0.08 | 0.03 | 87 | 1025.1 | |
| 20260830153616 | 24 | 0.0 | 0.0 | 0.00 | 0.08 | 0.03 | 89 | 1025.1 | |
| 20260830152556 | 24 | 0.0 | 4.8 | 0.00 | 0.08 | 0.03 | 88 | 1025.1 | |
| 20260830151536 | 24 | 0.0 | 0.0 | 0.00 | 0.08 | 0.03 | 88 | 1025.2 | |
| 20260830150616 | 24 | 0.0 | 0.0 | 0.00 | 0.08 | 0.03 | 89 | 1025.3 | |
| 20260830145536 | 24 | 0.0 | 1.6 | 0.00 | 0.08 | 0.03 | 91 | 1025.2 | |
| 20260830144516 | 23 | 0.0 | 3.2 | 0.00 | 0.08 | 0.03 | 90 | 1025.1 | |
| 20260830143556 | 23 | 0.0 | 1.6 | 0.00 | 0.08 | 0.03 | 91 | 1025.1 | |
| 20260830142536 | 23 | 0.0 | 1.6 | 0.00 | 0.08 | 0.03 | 92 | 1025.0 | |
| 20260830141516 | 23 | 0.0 | 1.6 | 0.00 | 0.08 | 0.03 | 94 | 1025.1 | |
| 20260830140535 | 22 | 45 | 1.6 | 8.0 | 0.00 | 0.08 | 0.03 | 95 | 1025.1 |
| 20260830135556 | 22 | 0.0 | 0.0 | 0.00 | 0.08 | 0.03 | 97 | 1025.2 | |
| 20260830134536 | 22 | 0.0 | 1.6 | 0.00 | 0.10 | 0.03 | 97 | 1025.2 | |
| 20260830133515 | 22 | 0.0 | 1.6 | 0.00 | 0.10 | 0.03 | 98 | 1025.2 | |
| 20260830132535 | 22 | 0.0 | 0.0 | 0.00 | 0.10 | 0.03 | 98 | 1025.3 | |
| 20260830131515 | 21 | 0.0 | 1.6 | 0.00 | 0.13 | 0.03 | 99 | 1025.3 | |
| 20260830130636 | 21 | 0.0 | 0.0 | 0.00 | 0.13 | 0.03 | 99 | 1025.2 | |
| 20260830125515 | 21 | 0.0 | 0.0 | 0.00 | 0.13 | 0.03 | 99 | 1025.2 | |
| 20260830124556 | 21 | 0.0 | 0.0 | 0.00 | 0.13 | 0.03 | 99 | 1025.3 | |
| 20260830123535 | 21 | 0.0 | 1.6 | 0.00 | 0.13 | 0.03 | 99 | 1025.2 | |
| 20260830122515 | 21 | 0.0 | 0.0 | 0.00 | 0.13 | 0.03 | 99 | 1025.2 | |
| 20260830121535 | 21 | 0.0 | 1.6 | 0.00 | 0.13 | 0.03 | 100 | 1025.1 | |
| 20260830120515 | 21 | 0.0 | 0.0 | 0.00 | 0.13 | 0.03 | 99 | 1025.1 | |
| 20260830115535 | 21 | 0.0 | 0.0 | 0.00 | 0.13 | 0.03 | 100 | 1025.0 | |
| 20260830114515 | 20 | 0.0 | 0.0 | 0.00 | 0.13 | 0.03 | 99 | 1024.8 | |
| 20260830113515 | 20 | 0.0 | 3.2 | 0.00 | 0.13 | 0.03 | 99 | 1024.7 | |
| 20260830112515 | 20 | 0.0 | 0.0 | 0.00 | 0.13 | 0.03 | 99 | 1024.7 | |
| 20260830111515 | 20 | 0.0 | 0.0 | 0.00 | 0.13 | 0.03 | 99 | 1024.7 | |
| 20260830110515 | 20 | 0.0 | 0.0 | 0.00 | 0.13 | 0.03 | 99 | 1024.5 | |
| 20260830104535 | 19 | 0.0 | 0.0 | 0.00 | 0.13 | 0.03 | 99 | 1024.3 | |
| 20260830103535 | 19 | 0.0 | 0.0 | 0.00 | 0.13 | 0.03 | 99 | 1024.2 | |
| 20260830102515 | 19 | 0.0 | 0.0 | 0.00 | 0.13 | 0.03 | 99 | 1024.0 | |
| 20260830101515 | 19 | 0.0 | 0.0 | 0.00 | 0.13 | 0.03 | 99 | 1023.9 | |
| 20260830095517 | 20 | 0.0 | 0.0 | 0.00 | 0.13 | 0.03 | 99 | 1023.7 | |
| 20260830094517 | 20 | 0.0 | 0.0 | 0.00 | 0.13 | 0.03 | 99 | 1023.7 | |
| 20260830093517 | 20 | 0.0 | 0.0 | 0.00 | 0.13 | 0.03 | 99 | 1023.7 | |
| 20260830092517 | 20 | 0.0 | 0.0 | 0.00 | 0.13 | 0.03 | 99 | 1023.7 | |
| 20260830091517 | 20 | 0.0 | 0.0 | 0.00 | 0.13 | 0.03 | 99 | 1023.6 | |
| 20260830090617 | 19 | 0.0 | 0.0 | 0.00 | 0.13 | 0.03 | 99 | 1023.5 | |
| 20260830085517 | 19 | 0.0 | 0.0 | 0.00 | 0.13 | 0.03 | 98 | 1023.6 | |
| 20260830084557 | 19 | 0.0 | 0.0 | 0.00 | 0.13 | 0.03 | 98 | 1023.6 | |
| 20260830083617 | 19 | 0.0 | 0.0 | 0.00 | 0.13 | 0.03 | 99 | 1023.6 | |
| 20260830082535 | 19 | 0.0 | 0.0 | 0.00 | 0.13 | 0.03 | 98 | 1023.6 | |
| 20260830081517 | 19 | 0.0 | 0.0 | 0.00 | 0.13 | 0.03 | 98 | 1023.7 | |
| 20260830080517 | 19 | 0.0 | 0.0 | 0.00 | 0.13 | 0.03 | 98 | 1023.7 | |
| 20260830075517 | 19 | 0.0 | 0.0 | 0.00 | 0.13 | 0.03 | 98 | 1023.9 | |
| 20260830074517 | 19 | 0.0 | 0.0 | 0.00 | 0.13 | 0.03 | 98 | 1023.9 | |
| 20260830073617 | 19 | 0.0 | 0.0 | 0.00 | 0.13 | 0.03 | 98 | 1024.1 | |
| 20260830072557 | 20 | 0.0 | 0.0 | 0.00 | 0.13 | 0.03 | 98 | 1024.0 | |
| 20260830071517 | 20 | 0.0 | 0.0 | 0.00 | 0.13 | 0.03 | 98 | 1024.0 | |
| 20260830070517 | 20 | 0.0 | 0.0 | 0.00 | 0.13 | 0.03 | 98 | 1024.1 | |
| 20260830065517 | 20 | 0.0 | 0.0 | 0.00 | 0.13 | 0.03 | 98 | 1024.2 | |
| 20260830064517 | 20 | 0.0 | 0.0 | 0.00 | 0.13 | 0.03 | 98 | 1024.2 | |
| 20260830063637 | 20 | 0.0 | 0.0 | 0.00 | 0.13 | 0.03 | 98 | 1024.2 | |
| 20260830062517 | 20 | 0.0 | 0.0 | 0.00 | 0.13 | 0.03 | 98 | 1024.2 | |
| 20260830061517 | 20 | 0.0 | 0.0 | 0.00 | 0.13 | 0.03 | 98 | 1024.2 | |
| 20260830060517 | 20 | 0.0 | 0.0 | 0.00 | 0.13 | 0.03 | 98 | 1024.3 | |
| 20260830055517 | 20 | 0.0 | 0.0 | 0.00 | 0.13 | 0.03 | 97 | 1024.3 | |
| 20260830054517 | 20 | 0.0 | 0.0 | 0.00 | 0.15 | 0.03 | 97 | 1024.3 | |
| 20260830053537 | 20 | 0.0 | 0.0 | 0.03 | 0.15 | 0.03 | 97 | 1024.3 | |
| 20260830052517 | 20 | 0.0 | 0.0 | 0.03 | 0.15 | 0.03 | 97 | 1024.4 | |
| 20260830051617 | 20 | 0.0 | 0.0 | 0.03 | 0.15 | 0.03 | 97 | 1024.5 | |
| 20260830045516 | 21 | 0.0 | 0.0 | 0.03 | 0.15 | 0.03 | 96 | 1024.7 | |
| 20260830044516 | 21 | 0.0 | 0.0 | 0.03 | 0.15 | 0.03 | 96 | 1024.8 | |
| 20260830043516 | 21 | 0.0 | 0.0 | 0.00 | 0.13 | 0.00 | 97 | 1024.9 | |
| 20260830042537 | 21 | 0.0 | 0.0 | 0.00 | 0.13 | 0.00 | 96 | 1024.9 | |
| 20260830041557 | 21 | 0.0 | 0.0 | 0.00 | 0.13 | 0.00 | 96 | 1024.9 | |
| 20260830040516 | 21 | 0.0 | 0.0 | 0.00 | 0.13 | 0.00 | 96 | 1024.9 | |
| 20260830035517 | 22 | 0.0 | 0.0 | 0.00 | 0.13 | 0.13 | 96 | 1025.0 | |
| 20260830034537 | 22 | 0.0 | 0.0 | 0.00 | 0.13 | 0.13 | 95 | 1025.0 | |
| 20260830033537 | 22 | 0.0 | 0.0 | 0.00 | 0.13 | 0.13 | 95 | 1024.8 | |
| 20260830032617 | 22 | 0.0 | 0.0 | 0.00 | 0.13 | 0.13 | 95 | 1024.6 | |
| 20260830031517 | 22 | 0.0 | 0.0 | 0.00 | 0.13 | 0.13 | 95 | 1024.5 | |
| 20260830030517 | 22 | 0.0 | 0.0 | 0.00 | 0.13 | 0.13 | 94 | 1024.5 | |
| 20260830025517 | 23 | 0.0 | 0.0 | 0.00 | 0.13 | 0.13 | 94 | 1024.4 | |
| 20260830024517 | 23 | 0.0 | 1.6 | 0.00 | 0.13 | 0.13 | 94 | 1024.3 | |
| 20260830023517 | 23 | 0.0 | 0.0 | 0.00 | 0.13 | 0.13 | 93 | 1024.2 | |
| 20260830022537 | 23 | 0.0 | 0.0 | 0.00 | 0.15 | 0.13 | 93 | 1024.3 | |
| 20260830021537 | 23 | 0.0 | 1.6 | 0.00 | 0.15 | 0.13 | 93 | 1024.0 | |
| 20260830020537 | 23 | 45 | 1.6 | 6.4 | 0.00 | 0.15 | 0.13 | 93 | 1023.8 |
| 20260830015537 | 23 | 0.0 | 3.2 | 0.00 | 0.15 | 0.13 | 93 | 1023.7 | |
| 20260830014517 | 23 | 0.0 | 1.6 | 0.03 | 0.15 | 0.13 | 92 | 1023.5 | |
| 20260830013617 | 23 | 0.0 | 0.0 | 0.03 | 0.15 | 0.13 | 91 | 1023.5 | |
| 20260830012517 | 23 | 0.0 | 0.0 | 0.03 | 0.15 | 0.13 | 91 | 1023.4 | |
| 20260830011557 | 23 | 0.0 | 0.0 | 0.03 | 0.15 | 0.13 | 90 | 1023.2 | |
| 20260830010537 | 23 | 0.0 | 3.2 | 0.03 | 0.15 | 0.13 | 89 | 1023.2 | |
| 20260830005517 | 24 | 0.0 | 1.6 | 0.03 | 0.15 | 0.13 | 88 | 1023.2 |